Regional Weather Roundup
Issued by NWS

Home | Current Version | Previous Version | Text Only | Print | Product List | Glossary Off
Versions: 1 2 3 4 5 6 7 8 9 10 11 12 13 14 15 16 17 18 19 20 21 22 23 24 25 26 27 28 29 30 31 32 33 34 35 36 37 38 39 40 41 42 43 44 45 46 47 48 49 50

715
ASUS43 KDMX 080601
RWRIA

WEATHER ROUNDUP FOR IOWA
NATIONAL WEATHER SERVICE DES MOINES IA
1200 AM CST THU DEC 08 2016

NOTE: "FAIR" INDICATES FEW OR NO CLOUDS BELOW 12,000 FEET WITH NO
SIGNIFICANT WEATHER AND/OR OBSTRUCTIONS TO VISIBILITY.

* - THESE STATIONS ARE NOT NWS STATIONS...THUS NOT UNDER NWS
QUALITY CONTROL.  THEY ALSO DO NOT REPORT WEATHER SUCH
AS PRECIPITATION OR FOG.

IAZ001>003-012>014-020>022-031>034-043>046-080700-
   NORTHWEST IOWA

CITY           SKY/WX    TMP DP  RH WIND       PRES   REMARKS
CARROLL *      FLURRIES  16   9  73 W21G28    30.36S WCI  -2
CHEROKEE *     PTCLDY    11   3  71 NW21G29   30.38R WCI  -8
DENISON *      CLOUDY    14   7  73 W10G17    30.38R WCI   1
LE MARS *      CLOUDY    10   3  72 NW22G31   30.43R WCI  -9
ORANGE CITY *  CLEAR      9   3  78 NW28G37   30.36R WCI -13
SHELDON *      PTCLDY     9   3  78 W21G30    30.33S WCI -11
SIOUX CITY     MOCLDY    15   4  61 NW22G29   30.43R WCI  -3
6HR MIN TEMP:  15; 6HR MAX TEMP:  19;

SPENCER        CLEAR      9   3  77 W28G39    30.32R WCI -13
6HR MIN TEMP:   9; 6HR MAX TEMP:  17; 6HR PCP: TRACE;

STORM LAKE *   MOCLDY    10   5  79 NW30      30.33R WCI -12
$$

IAZ055>058-069>071-079>083-090>094-080700-
   SOUTHWEST IOWA

CITY           SKY/WX    TMP DP  RH WIND       PRES   REMARKS
ATLANTIC *     CLEAR     16   7  67 W16G23    30.41S WCI   0
AUDUBON *      CLEAR     14   7  73 W13G22    30.37R WCI   0
CLARINDA *     CLEAR     18   7  62 NW10      30.47S WCI   6
COUNCIL BLFS * CLEAR     14   7  73 NW16G23   30.44S WCI  -2
CRESTON *      CLEAR     14   7  73 W16G24    30.39R WCI  -2
HARLAN  *      CLEAR     14   7  73 W21       30.44R WCI  -4
LAMONI         CLEAR     17   7  64 NW23G30   30.38S WCI  -1
6HR MIN TEMP:  17; 6HR MAX TEMP:  19;

RED OAK *      CLEAR     16   7  67 NW13      30.45S WCI   2
SHENANDOAH *   CLEAR     18   9  68 W8        30.48S WCI   7
$$

IAZ047>049-059>061-072>074-084-080700-
   CENTRAL IOWA

CITY           SKY/WX    TMP DP  RH WIND       PRES   REMARKS
AMES           CLOUDY    16   9  74 NW17G29   30.34R WCI   0
6HR MIN TEMP:  16; 6HR MAX TEMP:  20;

ANKENY *       CLOUDY    18   9  68 NW14G25   30.37S WCI   4
BOONE *        FLURRIES  16   7  67 W18G30    30.31F WCI  -1
CHARITON *     CLEAR     16   9  73 W16G23    30.36R WCI   0
DES MOINES     MOCLDY    18   8  65 NW21G30   30.36R WCI   1
6HR MIN TEMP:  18; 6HR MAX TEMP:  22;

GRINNELL*      MOCLDY    17  10  74 W22G28    30.31S WCI  -1
KNOXVILLE *    CLOUDY    18   7  62 NW17G25   30.34S WCI   2
MARSHALLTOWN   CLOUDY    17   9  70 W23G31    30.30R WCI  -1
6HR MIN TEMP:  17; 6HR MAX TEMP:  20; 6HR PCP: TRACE;

NEWTON *       CLOUDY    16  10  79 W17G25    30.32S WCI   0
PELLA *        CLEAR     18   9  68 NW18G28   30.35S WCI   2
PERRY *        MOCLDY    16  10  77 NW20G28   30.36F WCI   0
$$

IAZ004>006-015-016-023>025-035-036-080700-
   NORTH CENTRAL IOWA

CITY           SKY/WX    TMP DP  RH WIND       PRES   REMARKS
ALGONA *       CLEAR     12   5  73 W17G28    30.28S WCI  -5
CLARION *      PTCLDY    12   5  73 W20       30.29S WCI  -6
ESTHERVILLE    CLEAR      9   3  77 W23G32    30.28R WCI -11
6HR MIN TEMP:   9; 6HR MAX TEMP:  16; 6HR PCP: TRACE;

FORT DODGE *   PTCLDY    12   1  62 NW13G21   30.32S WCI  -3
MASON CITY     PTCLDY    11   4  73 W20G29    30.26R WCI  -7
6HR MIN TEMP:  11; 6HR MAX TEMP:  19; 6HR PCP: TRACE;

WEBSTER CITY * PTCLDY    14   7  73 W20G30    30.29S WCI  -3
IOWA FALLS *     N/A     15   8  74 W20G25    30.30R WCI  -3
$$

IAZ007>011-017>019-026>030-037>042-050>054-066-080700-
   NORTHEAST IOWA

CITY           SKY/WX    TMP DP  RH WIND       PRES   REMARKS
CEDAR RAPIDS   CLOUDY    18  12  77 W20G29    30.26R WCI   2
6HR MIN TEMP:  17; 6HR MAX TEMP:  22;

CHARLES CITY * MOCLDY    12   5  73 W23G29    30.23S WCI  -7
CLINTON *      FLURRIES  20  14  77 W24G31    30.22S WCI   3
DECORAH *      CLOUDY    12   7  79 W8G17     30.17S WCI   1
DUBUQUE        CLOUDY    19  11  70 W16G24    30.18R WCI   4
6HR MIN TEMP:  19; 6HR MAX TEMP:  22;

MONTICELLO *   CLOUDY    19  12  73 W22G30    30.22S WCI   3
OELWEIN *      FLURRIES  16  10  79 W22G35    30.22S WCI  -2
WATERLOO       CLOUDY    16   8  71 W16G22    30.26R WCI   1
6HR MIN TEMP:  16; 6HR MAX TEMP:  22; 6HR PCP: TRACE;

$$

IAZ064-065-067-068-078-080700-
   EAST CENTRAL IOWA

CITY           SKY/WX    TMP DP  RH WIND       PRES   REMARKS
DAVENPORT      MOCLDY    20  11  68 W22G30    30.25S WCI   3
6HR MIN TEMP:  19; 6HR MAX TEMP:  24;

IOWA CITY      CLOUDY    20  11  68 W16       30.31R WCI   6
6HR MIN TEMP:  20; 6HR MAX TEMP:  25;

MUSCATINE *    MOCLDY    21  10  63 W22       30.31S WCI   5
QUAD CITIES    CLEAR     21  11  65 W15G29    30.25F WCI   8
6HR MIN TEMP:  21; 6HR MAX TEMP:  25; 6HR PCP: TRACE;

$$

IAZ062-063-075>077-085>089-095>099-080700-
   SOUTHEAST IOWA

CITY           SKY/WX    TMP DP  RH WIND       PRES   REMARKS
BURLINGTON     CLEAR     20  12  71 W9        30.31S WCI   9
6HR MIN TEMP:  20; 6HR MAX TEMP:  26;

FAIRFIELD *    CLEAR     18   9  68 W12       30.32S WCI   5
FORT MADISON * CLEAR     19  10  68 W13       30.33S WCI   7
KEOKUK *       CLEAR     21  12  68 W12       30.34S WCI   9
OSKALOOSA *      N/A     17  11  77 W18G25    30.33F WCI   1
CENTERVILLE *    N/A     18   9  68 W17       30.37S WCI   2
OTTUMWA        CLEAR     19   8  62 W16G25    30.32F WCI   4
6HR MIN TEMP:  18; 6HR MAX TEMP:  22;

WASHINGTON *   CLEAR     19  12  73 W18G29    30.32S WCI   4
$$

ABBREVIATIONS USED IN REMARKS
   TC - TEMPERATURES IN CELSIUS
  WCI - WIND CHILL INDEX
   HX - HEAT INDEX
  VSB - VISIBILITY
$$





USA.gov is the U.S. government's official web portal to all federal, state and local government web resources and services.